Date,TemperatureHighF,TemperatureAvgF,TemperatureLowF,DewpointHighF,DewpointAvgF,DewpointLowF,HumidityHigh,HumidityAvg,HumidityLow,PressureMaxIn,PressureMinIn,WindSpeedMaxMPH,WindSpeedAvgMPH,GustSpeedMaxMPH,PrecipitationSumIn
2012-12-1,49,39,34,42,37,33,99,92,70,29.88,29.78,8,4,17,0.00
2012-12-2,51,40,33,51,40,32,99,99,97,29.86,29.49,10,2,20,0.28
2012-12-3,51,43,37,50,42,37,99,94,78,29.55,29.45,11,6,24,0.05
2012-12-4,46,40,36,42,39,35,99,94,82,29.49,29.35,11,6,22,0.00
2012-12-5,44,37,32,40,35,31,99,93,76,29.83,29.49,7,3,19,0.00
2012-12-6,45,39,32,44,38,32,99,95,84,29.80,29.24,17,9,34,0.33
2012-12-7,49,41,36,41,37,34,99,87,72,30.00,29.33,17,7,33,0.02
2012-12-8,47,41,34,45,39,33,99,93,77,30.10,30.00,10,5,20,0.00
2012-12-9,48,43,34,46,42,34,99,94,79,30.04,29.93,12,5,23,0.00
2012-12-10,51,36,30,42,34,29,99,92,64,30.20,30.00,5,1,10,0.00
2012-12-11,44,34,26,38,32,26,99,91,74,30.21,30.00,4,1,10,0.01
2012-12-12,45,41,36,42,38,32,97,88,83,29.99,29.52,9,4,23,0.01
2012-12-13,44,38,31,41,34,30,99,85,70,29.51,29.01,16,5,27,0.00
2012-12-14,50,45,42,50,44,41,99,96,90,29.01,28.42,24,9,35,0.34
2012-12-15,53,46,43,47,43,41,96,90,78,29.04,28.63,12,7,23,0.00
2012-12-16,53,46,43,46,43,40,95,87,74,29.08,28.98,13,7,24,0.07
2012-12-17,48,45,43,46,44,42,99,96,91,29.55,29.05,15,6,26,0.12
2012-12-18,47,42,36,44,41,36,99,97,82,29.80,29.59,17,3,30,0.00
2012-12-19,53,49,46,50,46,42,99,92,83,29.65,29.40,27,8,43,0.37
2012-12-20,48,46,44,47,46,44,99,99,99,29.39,29.19,8,3,14,0.09
2012-12-21,50,46,44,49,46,43,99,97,86,29.58,29.36,11,2,21,0.04
2012-12-22,58,54,49,58,54,47,99,98,86,29.39,28.92,17,8,38,0.24
2012-12-23,56,49,46,52,44,42,93,85,76,29.33,28.91,24,10,48,0.09
2012-12-24,53,48,44,48,45,41,95,90,79,29.31,28.93,9,5,17,0.02
2012-12-25,50,44,40,45,42,39,99,95,81,29.30,28.87,10,5,21,0.09
2012-12-26,49,44,41,47,42,38,99,92,74,29.32,29.07,16,8,36,0.12
2012-12-27,49,44,40,42,41,40,99,91,78,29.70,29.12,12,5,24,0.02
2012-12-28,56,53,43,53,51,41,99,92,87,29.62,29.07,29,14,51,0.57
2012-12-29,51,46,38,50,42,35,99,88,76,29.20,29.01,17,10,34,0.05
2012-12-30,52,44,37,50,43,36,99,93,83,29.38,29.17,24,12,42,0.05
2012-12-31,52,47,38,51,45,37,99,93,79,29.29,29.00,22,9,40,0.11